Time,TemperatureF,DewpointF,PressureIn,WindDirection,WindDirectionDegrees,WindSpeedMPH,WindSpeedGustMPH,Humidity,HourlyPrecipIn,Conditions,Clouds,dailyrainin,SolarRadiationWatts/m^2,SoftwareType,DateUTC
2015-04-18 00:02:00,50.8,44.9,30.01,West,275,0.0,0.0,80,0.00,,---,0.00,0.00,VWS V15.00,2015-04-18 07:02:00,
2015-04-18 00:08:00,50.5,44.9,30.01,West,275,0.0,1.0,81,0.00,,---,0.00,0.00,VWS V15.00,2015-04-18 07:08:00,
2015-04-18 00:14:00,50.3,44.7,30.01,West,275,0.0,1.0,81,0.00,,---,0.00,0.00,VWS V15.00,2015-04-18 07:14:00,
2015-04-18 00:19:00,50.1,44.8,30.01,West,275,0.0,1.0,82,0.00,,---,0.00,0.00,VWS V15.00,2015-04-18 07:19:00,
2015-04-18 00:25:00,49.9,44.6,30.01,West,275,0.0,1.0,82,0.00,,---,0.00,0.00,VWS V15.00,2015-04-18 07:25:00,
2015-04-18 00:30:00,49.6,44.7,30.01,West,275,0.0,1.0,83,0.00,,---,0.00,0.00,VWS V15.00,2015-04-18 07:30:00,
2015-04-18 00:36:00,49.5,44.9,30.01,West,275,0.0,1.0,84,0.00,,---,0.00,0.00,VWS V15.00,2015-04-18 07:36:00,
2015-04-18 00:42:00,49.5,44.9,30.01,West,275,0.0,1.0,84,0.00,,---,0.00,0.00,VWS V15.00,2015-04-18 07:42:00,
2015-04-18 00:47:00,49.4,44.8,30.01,West,275,0.0,1.0,84,0.00,,---,0.00,0.00,VWS V15.00,2015-04-18 07:47:00,
2015-04-18 00:53:00,49.6,45.0,30.01,West,275,1.0,1.0,84,0.00,,---,0.00,0.00,VWS V15.00,2015-04-18 07:53:00,
2015-04-18 00:58:00,49.8,44.8,30.01,West,275,1.0,2.0,83,0.00,,---,0.00,0.00,VWS V15.00,2015-04-18 07:58:00,
2015-04-18 01:04:00,49.6,44.7,30.01,West,275,0.0,1.0,83,0.00,,---,0.00,0.00,VWS V15.00,2015-04-18 08:04:00,
2015-04-18 01:10:00,49.4,44.8,30.01,West,275,1.0,1.0,84,0.00,,---,0.00,0.00,VWS V15.00,2015-04-18 08:10:00,
2015-04-18 01:15:00,49.1,44.5,30.01,West,275,1.0,2.0,84,0.00,,---,0.00,0.00,VWS V15.00,2015-04-18 08:15:00,
2015-04-18 01:21:00,48.7,44.4,30.01,West,275,1.0,2.0,85,0.00,,---,0.00,0.00,VWS V15.00,2015-04-18 08:21:00,
2015-04-18 01:27:00,48.5,44.5,30.01,West,275,1.0,2.0,86,0.00,,---,0.00,0.00,VWS V15.00,2015-04-18 08:27:00,
2015-04-18 01:32:00,48.2,44.5,30.01,West,275,1.0,1.0,87,0.00,,---,0.00,0.00,VWS V15.00,2015-04-18 08:32:00,
2015-04-18 01:38:00,48.4,44.7,30.01,West,275,1.0,2.0,87,0.00,,---,0.00,0.00,VWS V15.00,2015-04-18 08:38:00,
2015-04-18 01:43:00,48.8,44.8,30.01,West,275,1.0,2.0,86,0.00,,---,0.00,0.00,VWS V15.00,2015-04-18 08:43:00,
2015-04-18 01:49:00,48.9,44.6,30.01,West,275,1.0,2.0,85,0.00,,---,0.00,0.00,VWS V15.00,2015-04-18 08:49:00,
2015-04-18 01:55:00,48.6,44.6,30.01,West,275,0.0,2.0,86,0.00,,---,0.00,0.00,VWS V15.00,2015-04-18 08:55:00,
2015-04-18 02:00:00,48.6,44.6,30.01,West,275,1.0,2.0,86,0.00,,---,0.00,0.00,VWS V15.00,2015-04-18 09:00:00,
2015-04-18 02:06:00,48.3,44.3,30.00,West,275,1.0,1.0,86,0.00,,---,0.00,0.00,VWS V15.00,2015-04-18 09:06:00,
2015-04-18 02:11:00,48.0,44.3,30.00,West,275,1.0,1.0,87,0.00,,---,0.00,0.00,VWS V15.00,2015-04-18 09:11:00,
2015-04-18 02:17:00,47.8,44.1,30.00,West,275,0.0,1.0,87,0.00,,---,0.00,0.00,VWS V15.00,2015-04-18 09:17:00,
2015-04-18 02:23:00,47.8,44.1,30.00,West,275,0.0,1.0,87,0.00,,---,0.00,0.00,VWS V15.00,2015-04-18 09:23:00,
2015-04-18 02:28:00,47.5,43.8,30.00,West,275,0.0,1.0,87,0.00,,---,0.00,0.00,VWS V15.00,2015-04-18 09:28:00,
2015-04-18 02:34:00,47.2,44.1,30.00,West,275,1.0,1.0,89,0.00,,---,0.00,0.00,VWS V15.00,2015-04-18 09:34:00,
2015-04-18 02:39:00,47.3,44.2,30.00,West,275,0.0,1.0,89,0.00,,---,0.00,0.00,VWS V15.00,2015-04-18 09:39:00,
2015-04-18 02:45:00,47.6,44.2,30.00,West,275,1.0,1.0,88,0.00,,---,0.00,0.00,VWS V15.00,2015-04-18 09:45:00,
2015-04-18 02:51:00,47.5,44.1,30.00,West,275,1.0,1.0,88,0.00,,---,0.00,0.00,VWS V15.00,2015-04-18 09:51:00,
2015-04-18 02:56:00,47.3,43.9,30.00,West,275,1.0,1.0,88,0.00,,---,0.00,0.00,VWS V15.00,2015-04-18 09:56:00,
2015-04-18 03:02:00,47.1,44.0,30.00,West,275,1.0,2.0,89,0.00,,---,0.00,0.00,VWS V15.00,2015-04-18 10:02:00,
2015-04-18 03:08:00,47.0,43.9,30.00,West,275,1.0,2.0,89,0.00,,---,0.00,0.00,VWS V15.00,2015-04-18 10:08:00,
2015-04-18 03:13:00,46.8,43.7,30.00,West,275,1.0,2.0,89,0.00,,---,0.00,0.00,VWS V15.00,2015-04-18 10:13:00,
2015-04-18 03:19:00,46.5,43.7,30.00,West,275,0.0,2.0,90,0.00,,---,0.00,0.00,VWS V15.00,2015-04-18 10:19:00,
2015-04-18 03:24:00,46.3,43.5,30.00,West,275,1.0,2.0,90,0.00,,---,0.00,0.00,VWS V15.00,2015-04-18 10:24:00,
2015-04-18 03:30:00,46.0,43.2,30.00,West,275,1.0,2.0,90,0.00,,---,0.00,0.00,VWS V15.00,2015-04-18 10:30:00,
2015-04-18 03:36:00,45.8,43.3,30.00,West,275,1.0,2.0,91,0.00,,---,0.00,0.00,VWS V15.00,2015-04-18 10:36:00,
2015-04-18 03:41:00,45.6,43.1,29.99,West,275,1.0,2.0,91,0.00,,---,0.00,0.00,VWS V15.00,2015-04-18 10:41:00,
2015-04-18 03:47:00,45.5,43.3,30.00,West,275,1.0,2.0,92,0.00,,---,0.00,0.00,VWS V15.00,2015-04-18 10:47:00,
2015-04-18 03:52:00,45.5,43.3,30.00,West,275,1.0,2.0,92,0.00,,---,0.00,0.00,VWS V15.00,2015-04-18 10:52:00,
2015-04-18 03:58:00,45.4,43.2,30.00,West,275,0.0,2.0,92,0.00,,---,0.00,0.00,VWS V15.00,2015-04-18 10:58:00,
2015-04-18 04:04:00,45.3,43.1,30.00,West,275,0.0,1.0,92,0.00,,---,0.00,0.00,VWS V15.00,2015-04-18 11:04:00,
2015-04-18 04:09:00,45.3,43.1,30.00,West,275,0.0,1.0,92,0.00,,---,0.00,0.00,VWS V15.00,2015-04-18 11:09:00,
2015-04-18 04:15:00,45.2,43.0,30.00,West,275,1.0,2.0,92,0.00,,---,0.00,0.00,VWS V15.00,2015-04-18 11:15:00,
2015-04-18 04:21:00,45.1,42.9,30.00,West,275,0.0,2.0,92,0.00,,---,0.00,0.00,VWS V15.00,2015-04-18 11:21:00,
2015-04-18 04:26:00,44.9,42.7,30.00,West,275,1.0,2.0,92,0.00,,---,0.00,0.00,VWS V15.00,2015-04-18 11:26:00,
2015-04-18 04:32:00,44.8,42.6,30.00,West,275,2.0,2.0,92,0.00,,---,0.00,0.00,VWS V15.00,2015-04-18 11:32:00,
2015-04-18 04:37:00,44.7,42.8,30.00,West,275,1.0,2.0,93,0.00,,---,0.00,0.00,VWS V15.00,2015-04-18 11:37:00,
2015-04-18 04:43:00,44.6,42.7,30.00,West,275,1.0,2.0,93,0.00,,---,0.00,0.00,VWS V15.00,2015-04-18 11:43:00,
2015-04-18 04:49:00,44.6,42.7,30.00,West,275,0.0,2.0,93,0.00,,---,0.00,0.00,VWS V15.00,2015-04-18 11:49:00,
2015-04-18 04:54:00,44.5,42.6,29.99,West,275,0.0,2.0,93,0.00,,---,0.00,0.00,VWS V15.00,2015-04-18 11:54:00,
2015-04-18 05:00:00,44.6,42.7,29.99,West,275,1.0,2.0,93,0.00,,---,0.00,0.00,VWS V15.00,2015-04-18 12:00:00,
2015-04-18 05:05:00,44.6,43.0,29.99,West,275,1.0,2.0,94,0.00,,---,0.00,0.00,VWS V15.00,2015-04-18 12:05:00,
2015-04-18 05:11:00,44.7,42.8,29.99,West,275,1.0,2.0,93,0.00,,---,0.00,0.00,VWS V15.00,2015-04-18 12:11:00,
2015-04-18 05:17:00,44.7,42.5,29.99,West,275,1.0,2.0,92,0.00,,---,0.00,0.00,VWS V15.00,2015-04-18 12:17:00,
2015-04-18 05:22:00,44.5,42.3,29.99,West,275,1.0,2.0,92,0.00,,---,0.00,0.00,VWS V15.00,2015-04-18 12:22:00,
2015-04-18 05:28:00,44.3,42.4,29.99,West,275,1.0,2.0,93,0.00,,---,0.00,0.00,VWS V15.00,2015-04-18 12:28:00,
2015-04-18 05:33:00,44.3,42.4,29.99,West,275,1.0,1.0,93,0.00,,---,0.00,0.00,VWS V15.00,2015-04-18 12:33:00,
2015-04-18 05:39:00,44.2,42.3,29.99,West,275,1.0,2.0,93,0.00,,---,0.00,0.00,VWS V15.00,2015-04-18 12:39:00,
2015-04-18 05:45:00,44.1,42.2,29.99,West,275,2.0,2.0,93,0.00,,---,0.00,0.00,VWS V15.00,2015-04-18 12:45:00,
2015-04-18 05:50:00,44.0,42.1,29.99,West,275,1.0,2.0,93,0.00,,---,0.00,0.00,VWS V15.00,2015-04-18 12:50:00,
2015-04-18 05:56:00,44.1,42.5,30.00,West,275,1.0,2.0,94,0.00,,---,0.00,0.00,VWS V15.00,2015-04-18 12:56:00,
2015-04-18 06:02:00,44.2,42.6,30.00,West,275,1.0,2.0,94,0.00,,---,0.00,0.00,VWS V15.00,2015-04-18 13:02:00,
2015-04-18 06:07:00,44.2,42.9,30.00,West,275,1.0,2.0,95,0.00,,---,0.00,0.00,VWS V15.00,2015-04-18 13:07:00,
2015-04-18 06:13:00,44.2,42.9,30.00,West,275,2.0,2.0,95,0.00,,---,0.00,0.00,VWS V15.00,2015-04-18 13:13:00,
2015-04-18 06:18:00,44.2,42.9,30.00,West,275,1.0,2.0,95,0.00,,---,0.00,0.00,VWS V15.00,2015-04-18 13:18:00,
2015-04-18 06:24:00,44.2,42.9,30.00,West,275,1.0,2.0,95,0.00,,---,0.00,0.00,VWS V15.00,2015-04-18 13:24:00,
2015-04-18 06:30:00,44.3,43.0,30.00,West,275,1.0,2.0,95,0.00,,---,0.00,0.00,VWS V15.00,2015-04-18 13:30:00,
2015-04-18 06:35:00,44.3,43.0,30.00,West,275,1.0,2.0,95,0.00,,---,0.00,0.00,VWS V15.00,2015-04-18 13:35:00,
2015-04-18 06:41:00,44.5,43.2,30.00,West,275,1.0,2.0,95,0.00,,---,0.00,0.00,VWS V15.00,2015-04-18 13:41:00,
2015-04-18 06:46:00,44.6,43.3,30.00,West,275,1.0,2.0,95,0.00,,---,0.00,7.00,VWS V15.00,2015-04-18 13:46:00,
2015-04-18 06:52:00,44.7,43.4,30.00,West,275,1.0,2.0,95,0.00,,---,0.00,9.00,VWS V15.00,2015-04-18 13:52:00,
2015-04-18 06:58:00,44.9,43.8,30.00,West,275,1.0,2.0,96,0.00,,---,0.00,12.00,VWS V15.00,2015-04-18 13:58:00,
2015-04-18 07:03:00,44.9,43.6,30.00,West,275,1.0,1.0,95,0.00,,---,0.00,14.00,VWS V15.00,2015-04-18 14:03:00,
2015-04-18 07:09:00,44.9,43.6,30.01,West,275,2.0,2.0,95,0.00,,---,0.00,25.00,VWS V15.00,2015-04-18 14:09:00,
2015-04-18 07:15:00,44.9,43.6,30.01,West,275,2.0,2.0,95,0.00,,---,0.00,28.00,VWS V15.00,2015-04-18 14:15:00,
2015-04-18 07:20:00,45.0,43.7,30.01,West,275,2.0,3.0,95,0.00,,---,0.00,33.00,VWS V15.00,2015-04-18 14:20:00,
2015-04-18 07:26:00,45.2,43.9,30.01,West,275,2.0,3.0,95,0.00,,---,0.00,37.00,VWS V15.00,2015-04-18 14:26:00,
2015-04-18 07:31:00,45.5,44.2,30.01,West,275,1.0,2.0,95,0.00,,---,0.00,39.00,VWS V15.00,2015-04-18 14:31:00,
2015-04-18 07:37:00,45.6,44.2,30.01,West,275,1.0,2.0,95,0.00,,---,0.00,47.00,VWS V15.00,2015-04-18 14:37:00,
2015-04-18 07:43:00,45.9,44.5,30.01,West,275,0.0,2.0,95,0.00,,---,0.00,53.00,VWS V15.00,2015-04-18 14:43:00,
2015-04-18 07:53:00,46.4,45.0,30.01,West,275,2.0,2.0,95,0.00,,---,0.00,63.00,VWS V15.00,2015-04-18 14:53:00,
2015-04-18 07:59:00,46.7,45.6,30.01,West,275,1.0,2.0,96,0.00,,---,0.00,69.00,VWS V15.00,2015-04-18 14:59:00,
2015-04-18 08:00:00,46.8,45.5,30.01,West,275,1.0,2.0,95,0.00,,---,0.00,67.00,VWS V15.00,2015-04-18 15:00:00,
2015-04-18 08:05:00,47.0,45.7,30.01,West,275,0.0,1.0,95,0.00,,---,0.00,76.00,VWS V15.00,2015-04-18 15:05:00,
2015-04-18 08:10:00,47.3,45.9,30.01,West,275,1.0,2.0,95,0.00,,---,0.00,81.00,VWS V15.00,2015-04-18 15:10:00,
2015-04-18 08:16:00,47.4,46.0,30.02,West,275,1.0,2.0,95,0.00,,---,0.00,91.00,VWS V15.00,2015-04-18 15:16:00,
2015-04-18 08:29:00,47.9,46.3,30.02,West,275,1.0,2.0,94,0.00,,---,0.00,120.00,VWS V15.00,2015-04-18 15:29:00,
2015-04-18 08:34:00,48.2,46.6,30.01,West,275,1.0,2.0,94,0.00,,---,0.00,135.00,VWS V15.00,2015-04-18 15:34:00,
2015-04-18 08:40:00,48.5,46.9,30.02,West,275,1.0,2.0,94,0.00,,---,0.00,146.00,VWS V15.00,2015-04-18 15:40:00,
2015-04-18 08:45:00,48.9,47.0,30.02,West,275,0.0,2.0,93,0.00,,---,0.00,160.00,VWS V15.00,2015-04-18 15:45:00,
2015-04-18 08:51:00,49.2,47.0,30.01,West,270,2.0,3.0,92,0.00,,---,0.00,163.00,VWS V15.00,2015-04-18 15:51:00,
2015-04-18 08:57:00,49.5,47.3,30.01,West,270,0.0,3.0,92,0.00,,---,0.00,183.00,VWS V15.00,2015-04-18 15:57:00,
2015-04-18 09:02:00,50.1,47.9,30.01,West,271,1.0,2.0,92,0.00,,---,0.00,211.00,VWS V15.00,2015-04-18 16:02:00,
2015-04-18 09:08:00,50.8,48.3,30.01,West,279,0.0,2.0,91,0.00,,---,0.00,200.00,VWS V15.00,2015-04-18 16:08:00,
2015-04-18 09:13:00,51.3,48.8,30.01,NE,54,0.0,2.0,91,0.00,,---,0.00,220.00,VWS V15.00,2015-04-18 16:13:00,
2015-04-18 09:19:00,51.9,48.8,30.01,ENE,68,3.0,4.0,89,0.00,,---,0.00,237.00,VWS V15.00,2015-04-18 16:19:00,
2015-04-18 09:25:00,52.2,48.8,30.01,East,100,0.0,4.0,88,0.00,,---,0.00,288.00,VWS V15.00,2015-04-18 16:25:00,
2015-04-18 09:30:00,52.4,49.0,30.01,ESE,106,1.0,4.0,88,0.00,,---,0.00,330.00,VWS V15.00,2015-04-18 16:30:00,
2015-04-18 09:36:00,52.8,49.0,30.01,ESE,119,1.0,3.0,87,0.00,,---,0.00,308.00,VWS V15.00,2015-04-18 16:36:00,
2015-04-18 09:42:00,53.2,49.4,30.01,SW,230,1.0,3.0,87,0.00,,---,0.00,432.00,VWS V15.00,2015-04-18 16:42:00,
2015-04-18 09:47:00,54.1,49.7,30.01,SW,228,1.0,4.0,85,0.00,,---,0.00,654.00,VWS V15.00,2015-04-18 16:47:00,
2015-04-18 09:53:00,54.5,49.8,30.01,WSW,256,1.0,4.0,84,0.00,,---,0.00,598.00,VWS V15.00,2015-04-18 16:53:00,
2015-04-18 09:58:00,55.5,50.1,30.01,SW,218,0.0,4.0,82,0.00,,---,0.00,603.00,VWS V15.00,2015-04-18 16:58:00,
2015-04-18 10:04:00,56.9,50.8,30.01,WNW,297,2.0,3.0,80,0.00,,---,0.00,621.00,VWS V15.00,2015-04-18 17:04:00,
2015-04-18 10:10:00,57.3,50.5,30.01,WNW,287,2.0,3.0,78,0.00,,---,0.00,635.00,VWS V15.00,2015-04-18 17:10:00,
2015-04-18 10:15:00,57.7,51.2,30.01,West,274,1.0,3.0,79,0.00,,---,0.00,652.00,VWS V15.00,2015-04-18 17:15:00,
2015-04-18 10:21:00,58.2,51.0,30.01,SE,127,1.0,4.0,77,0.00,,---,0.00,668.00,VWS V15.00,2015-04-18 17:21:00,
2015-04-18 10:26:00,59.5,51.6,30.01,East,87,2.0,6.0,75,0.00,,---,0.00,682.00,VWS V15.00,2015-04-18 17:26:00,
2015-04-18 10:32:00,59.8,51.1,30.00,ENE,66,2.0,4.0,73,0.00,,---,0.00,698.00,VWS V15.00,2015-04-18 17:32:00,
2015-04-18 10:38:00,60.1,51.4,30.00,South,189,0.0,4.0,73,0.00,,---,0.00,712.00,VWS V15.00,2015-04-18 17:38:00,
2015-04-18 10:43:00,60.7,51.6,30.00,ESE,108,6.0,6.0,72,0.00,,---,0.00,726.00,VWS V15.00,2015-04-18 17:43:00,
2015-04-18 10:49:00,60.4,51.7,30.00,East,97,2.0,6.0,73,0.00,,---,0.00,740.00,VWS V15.00,2015-04-18 17:49:00,
2015-04-18 10:54:00,60.5,51.4,30.00,East,85,0.0,9.0,72,0.00,,---,0.00,751.00,VWS V15.00,2015-04-18 17:54:00,
2015-04-18 11:00:00,60.9,51.8,30.00,East,94,2.0,9.0,72,0.00,,---,0.00,766.00,VWS V15.00,2015-04-18 18:00:00,
2015-04-18 11:06:00,61.4,51.9,30.00,ESE,103,1.0,7.0,71,0.00,,---,0.00,779.00,VWS V15.00,2015-04-18 18:06:00,
2015-04-18 11:11:00,61.1,52.0,30.00,ESE,102,6.0,7.0,72,0.00,,---,0.00,793.00,VWS V15.00,2015-04-18 18:11:00,
2015-04-18 11:17:00,61.6,52.1,30.00,ESE,103,8.0,8.0,71,0.00,,---,0.00,805.00,VWS V15.00,2015-04-18 18:17:00,
2015-04-18 11:23:00,62.1,52.6,30.00,SE,127,4.0,8.0,71,0.00,,---,0.00,817.00,VWS V15.00,2015-04-18 18:23:00,
2015-04-18 11:28:00,63.1,52.8,30.00,ESE,108,3.0,8.0,69,0.00,,---,0.00,828.00,VWS V15.00,2015-04-18 18:28:00,
2015-04-18 11:34:00,63.1,52.4,30.00,ESE,106,3.0,7.0,68,0.00,,---,0.00,842.00,VWS V15.00,2015-04-18 18:34:00,
2015-04-18 11:39:00,63.1,52.0,29.99,ESE,108,1.0,8.0,67,0.00,,---,0.00,851.00,VWS V15.00,2015-04-18 18:39:00,
2015-04-18 11:45:00,63.2,52.5,29.99,East,88,3.0,8.0,68,0.00,,---,0.00,860.00,VWS V15.00,2015-04-18 18:45:00,
2015-04-18 11:51:00,63.7,52.1,29.99,NE,34,1.0,8.0,66,0.00,,---,0.00,870.00,VWS V15.00,2015-04-18 18:51:00,
2015-04-18 11:56:00,64.7,52.3,29.99,ESE,118,7.0,8.0,64,0.00,,---,0.00,879.00,VWS V15.00,2015-04-18 18:56:00,
2015-04-18 12:02:00,65.3,52.8,29.98,East,93,4.0,6.0,64,0.00,,---,0.00,888.00,VWS V15.00,2015-04-18 19:02:00,
2015-04-18 12:07:00,65.3,52.0,29.98,East,88,3.0,9.0,62,0.00,,---,0.00,896.00,VWS V15.00,2015-04-18 19:07:00,
2015-04-18 12:13:00,65.0,52.1,29.98,ESE,112,6.0,9.0,63,0.00,,---,0.00,904.00,VWS V15.00,2015-04-18 19:13:00,
2015-04-18 12:19:00,65.3,52.0,29.98,ESE,116,3.0,9.0,62,0.00,,---,0.00,912.00,VWS V15.00,2015-04-18 19:19:00,
2015-04-18 12:24:00,66.0,52.2,29.98,ESE,107,6.0,9.0,61,0.00,,---,0.00,919.00,VWS V15.00,2015-04-18 19:24:00,
2015-04-18 12:30:00,66.1,51.8,29.97,East,82,3.0,9.0,60,0.00,,---,0.00,926.00,VWS V15.00,2015-04-18 19:30:00,
2015-04-18 12:36:00,66.4,51.7,29.97,ESE,112,3.0,7.0,59,0.00,,---,0.00,930.00,VWS V15.00,2015-04-18 19:36:00,
2015-04-18 12:41:00,66.9,52.1,29.97,SE,131,3.0,8.0,59,0.00,,---,0.00,935.00,VWS V15.00,2015-04-18 19:41:00,
2015-04-18 12:47:00,67.6,51.8,29.97,NE,41,4.0,9.0,57,0.00,,---,0.00,940.00,VWS V15.00,2015-04-18 19:47:00,
2015-04-18 12:52:00,67.8,51.1,29.96,ESE,119,3.0,9.0,55,0.00,,---,0.00,942.00,VWS V15.00,2015-04-18 19:52:00,
2015-04-18 12:58:00,68.3,52.0,29.96,ESE,110,7.0,9.0,56,0.00,,---,0.00,946.00,VWS V15.00,2015-04-18 19:58:00,
2015-04-18 13:04:00,68.6,51.3,29.96,SE,139,1.0,8.0,54,0.00,,---,0.00,949.00,VWS V15.00,2015-04-18 20:04:00,
2015-04-18 13:09:00,69.1,50.8,29.96,ESE,108,4.0,8.0,52,0.00,,---,0.00,949.00,VWS V15.00,2015-04-18 20:09:00,
2015-04-18 13:15:00,69.1,50.2,29.95,ESE,118,5.0,9.0,51,0.00,,---,0.00,949.00,VWS V15.00,2015-04-18 20:15:00,
2015-04-18 13:20:00,68.7,49.9,29.95,ESE,114,6.0,9.0,51,0.00,,---,0.00,953.00,VWS V15.00,2015-04-18 20:20:00,
2015-04-18 13:26:00,69.3,50.4,29.95,ESE,112,3.0,9.0,51,0.00,,---,0.00,954.00,VWS V15.00,2015-04-18 20:26:00,
2015-04-18 13:32:00,70.3,50.8,29.95,ESE,114,6.0,6.0,50,0.00,,---,0.00,954.00,VWS V15.00,2015-04-18 20:32:00,
2015-04-18 13:37:00,70.7,50.6,29.95,ESE,111,2.0,7.0,49,0.00,,---,0.00,956.00,VWS V15.00,2015-04-18 20:37:00,
2015-04-18 13:43:00,71.3,51.2,29.95,SE,125,1.0,7.0,49,0.00,,---,0.00,954.00,VWS V15.00,2015-04-18 20:43:00,
2015-04-18 13:49:00,71.8,51.1,29.94,ESE,108,3.0,8.0,48,0.00,,---,0.00,954.00,VWS V15.00,2015-04-18 20:49:00,
2015-04-18 13:54:00,71.9,50.0,29.94,ESE,102,2.0,9.0,46,0.00,,---,0.00,951.00,VWS V15.00,2015-04-18 20:54:00,
2015-04-18 14:00:00,72.1,50.2,29.94,SE,125,1.0,9.0,46,0.00,,---,0.00,947.00,VWS V15.00,2015-04-18 21:00:00,
2015-04-18 14:05:00,71.9,50.0,29.94,ESE,113,4.0,8.0,46,0.00,,---,0.00,942.00,VWS V15.00,2015-04-18 21:05:00,
2015-04-18 14:11:00,71.6,50.9,29.94,ESE,123,3.0,8.0,48,0.00,,---,0.00,939.00,VWS V15.00,2015-04-18 21:11:00,
2015-04-18 14:17:00,72.2,51.4,29.94,East,86,5.0,8.0,48,0.00,,---,0.00,933.00,VWS V15.00,2015-04-18 21:17:00,
2015-04-18 14:22:00,73.0,50.4,29.94,ENE,66,3.0,8.0,45,0.00,,---,0.00,930.00,VWS V15.00,2015-04-18 21:22:00,
2015-04-18 14:28:00,72.8,52.0,29.94,SSE,160,2.0,9.0,48,0.00,,---,0.00,921.00,VWS V15.00,2015-04-18 21:28:00,
2015-04-18 14:33:00,73.4,50.2,29.94,ESE,106,3.0,8.0,44,0.00,,---,0.00,912.00,VWS V15.00,2015-04-18 21:33:00,
2015-04-18 14:39:00,73.5,49.7,29.93,ESE,121,5.0,8.0,43,0.00,,---,0.00,905.00,VWS V15.00,2015-04-18 21:39:00,
2015-04-18 14:45:00,73.5,49.0,29.93,ENE,72,3.0,8.0,42,0.00,,---,0.00,896.00,VWS V15.00,2015-04-18 21:45:00,
2015-04-18 14:50:00,74.3,47.8,29.93,ESE,105,8.0,8.0,39,0.00,,---,0.00,889.00,VWS V15.00,2015-04-18 21:50:00,
2015-04-18 14:56:00,73.9,48.1,29.93,ESE,116,4.0,9.0,40,0.00,,---,0.00,879.00,VWS V15.00,2015-04-18 21:56:00,
2015-04-18 15:02:00,73.8,48.0,29.92,ESE,105,8.0,8.0,40,0.00,,---,0.00,870.00,VWS V15.00,2015-04-18 22:02:00,
2015-04-18 15:07:00,73.9,47.4,29.92,ESE,114,4.0,8.0,39,0.00,,---,0.00,861.00,VWS V15.00,2015-04-18 22:07:00,
2015-04-18 15:13:00,74.2,47.0,29.92,ENE,66,3.0,8.0,38,0.00,,---,0.00,849.00,VWS V15.00,2015-04-18 22:13:00,
2015-04-18 15:18:00,74.3,47.1,29.92,ESE,111,4.0,8.0,38,0.00,,---,0.00,837.00,VWS V15.00,2015-04-18 22:18:00,
2015-04-18 15:24:00,74.4,47.9,29.92,East,82,3.0,8.0,39,0.00,,---,0.00,824.00,VWS V15.00,2015-04-18 22:24:00,
2015-04-18 15:30:00,75.1,47.8,29.92,ESE,112,3.0,8.0,38,0.00,,---,0.00,812.00,VWS V15.00,2015-04-18 22:30:00,
2015-04-18 15:35:00,75.2,47.9,29.91,East,94,6.0,8.0,38,0.00,,---,0.00,798.00,VWS V15.00,2015-04-18 22:35:00,
2015-04-18 15:41:00,75.0,46.3,29.91,SSE,149,5.0,8.0,36,0.00,,---,0.00,786.00,VWS V15.00,2015-04-18 22:41:00,
2015-04-18 15:46:00,74.9,46.2,29.91,East,83,3.0,8.0,36,0.00,,---,0.00,770.00,VWS V15.00,2015-04-18 22:46:00,
2015-04-18 15:52:00,75.0,46.3,29.91,SE,133,3.0,8.0,36,0.00,,---,0.00,752.00,VWS V15.00,2015-04-18 22:52:00,
2015-04-18 15:58:00,74.9,46.9,29.91,ENE,77,2.0,9.0,37,0.00,,---,0.00,740.00,VWS V15.00,2015-04-18 22:58:00,
2015-04-18 16:03:00,74.9,46.9,29.91,East,100,3.0,9.0,37,0.00,,---,0.00,722.00,VWS V15.00,2015-04-18 23:03:00,
2015-04-18 16:09:00,74.9,46.9,29.90,SE,127,3.0,9.0,37,0.00,,---,0.00,710.00,VWS V15.00,2015-04-18 23:09:00,
2015-04-18 16:15:00,75.0,47.7,29.90,East,98,2.0,9.0,38,0.00,,---,0.00,689.00,VWS V15.00,2015-04-18 23:15:00,
2015-04-18 16:26:00,74.9,47.6,29.90,ESE,120,3.0,9.0,38,0.00,,---,0.00,652.00,VWS V15.00,2015-04-18 23:26:00,
2015-04-18 16:31:00,75.0,47.0,29.90,SE,124,4.0,9.0,37,0.00,,---,0.00,635.00,VWS V15.00,2015-04-18 23:31:00,
2015-04-18 16:37:00,74.6,47.3,29.90,East,90,2.0,9.0,38,0.00,,---,0.00,619.00,VWS V15.00,2015-04-18 23:37:00,
2015-04-18 16:43:00,74.6,47.3,29.89,East,81,5.0,9.0,38,0.00,,---,0.00,601.00,VWS V15.00,2015-04-18 23:43:00,
2015-04-18 16:48:00,74.3,47.8,29.89,East,79,3.0,9.0,39,0.00,,---,0.00,584.00,VWS V15.00,2015-04-18 23:48:00,
2015-04-18 16:54:00,73.8,47.3,29.89,SE,143,2.0,9.0,39,0.00,,---,0.00,564.00,VWS V15.00,2015-04-18 23:54:00,
2015-04-18 16:59:00,73.7,47.2,29.89,ESE,117,3.0,9.0,39,0.00,,---,0.00,545.00,VWS V15.00,2015-04-18 23:59:00,
2015-04-18 17:05:00,73.7,47.9,29.89,ESE,116,7.0,8.0,40,0.00,,---,0.00,526.00,VWS V15.00,2015-04-19 00:05:00,
2015-04-18 17:11:00,73.5,48.4,29.89,ESE,110,1.0,8.0,41,0.00,,---,0.00,504.00,VWS V15.00,2015-04-19 00:11:00,
2015-04-18 17:16:00,73.7,48.6,29.88,East,95,2.0,8.0,41,0.00,,---,0.00,485.00,VWS V15.00,2015-04-19 00:16:00,
2015-04-18 17:22:00,73.7,48.6,29.88,ESE,118,3.0,8.0,41,0.00,,---,0.00,464.00,VWS V15.00,2015-04-19 00:22:00,
2015-04-18 17:28:00,73.3,49.5,29.88,ESE,123,3.0,8.0,43,0.00,,---,0.00,445.00,VWS V15.00,2015-04-19 00:28:00,
2015-04-18 17:33:00,73.2,48.8,29.88,ESE,106,3.0,6.0,42,0.00,,---,0.00,425.00,VWS V15.00,2015-04-19 00:33:00,
2015-04-18 17:39:00,73.1,49.3,29.88,East,83,2.0,6.0,43,0.00,,---,0.00,406.00,VWS V15.00,2015-04-19 00:39:00,
2015-04-18 17:44:00,73.3,49.5,29.88,ESE,114,2.0,6.0,43,0.00,,---,0.00,381.00,VWS V15.00,2015-04-19 00:44:00,
2015-04-18 17:50:00,73.1,49.3,29.88,ESE,122,2.0,6.0,43,0.00,,---,0.00,359.00,VWS V15.00,2015-04-19 00:50:00,
2015-04-18 17:56:00,72.9,49.7,29.88,ESE,111,3.0,6.0,44,0.00,,---,0.00,338.00,VWS V15.00,2015-04-19 00:56:00,
2015-04-18 18:01:00,72.5,49.4,29.88,ESE,112,2.0,6.0,44,0.00,,---,0.00,316.00,VWS V15.00,2015-04-19 01:01:00,
2015-04-18 18:07:00,71.9,49.4,29.88,ESE,112,1.0,6.0,45,0.00,,---,0.00,294.00,VWS V15.00,2015-04-19 01:07:00,
2015-04-18 18:12:00,71.4,49.0,29.88,ESE,116,3.0,6.0,45,0.00,,---,0.00,271.00,VWS V15.00,2015-04-19 01:12:00,
2015-04-18 18:18:00,70.8,49.0,29.88,ESE,111,2.0,6.0,46,0.00,,---,0.00,251.00,VWS V15.00,2015-04-19 01:18:00,
2015-04-18 18:24:00,70.3,49.1,29.88,ESE,108,3.0,6.0,47,0.00,,---,0.00,227.00,VWS V15.00,2015-04-19 01:24:00,
2015-04-18 18:29:00,70.1,49.5,29.87,ESE,114,2.0,6.0,48,0.00,,---,0.00,200.00,VWS V15.00,2015-04-19 01:29:00,
2015-04-18 18:35:00,69.4,49.4,29.88,ESE,107,3.0,6.0,49,0.00,,---,0.00,179.00,VWS V15.00,2015-04-19 01:35:00,
2015-04-18 18:40:00,68.4,49.1,29.88,ESE,108,2.0,6.0,50,0.00,,---,0.00,86.00,VWS V15.00,2015-04-19 01:40:00,
2015-04-18 18:46:00,67.4,49.7,29.88,ESE,104,2.0,6.0,53,0.00,,---,0.00,49.00,VWS V15.00,2015-04-19 01:46:00,
2015-04-18 18:52:00,66.6,50.0,29.88,ESE,107,3.0,6.0,55,0.00,,---,0.00,35.00,VWS V15.00,2015-04-19 01:52:00,
2015-04-18 18:57:00,65.9,49.8,29.87,East,95,3.0,6.0,56,0.00,,---,0.00,33.00,VWS V15.00,2015-04-19 01:57:00,
2015-04-18 19:03:00,65.2,50.1,29.88,ESE,110,7.0,7.0,58,0.00,,---,0.00,39.00,VWS V15.00,2015-04-19 02:03:00,
2015-04-18 19:09:00,64.4,50.2,29.88,ESE,110,3.0,7.0,60,0.00,,---,0.00,30.00,VWS V15.00,2015-04-19 02:09:00,
2015-04-18 19:20:00,63.1,49.9,29.88,ESE,113,6.0,8.0,62,0.00,,---,0.00,21.00,VWS V15.00,2015-04-19 02:20:00,
2015-04-18 19:25:00,62.5,49.8,29.88,ESE,110,3.0,8.0,63,0.00,,---,0.00,19.00,VWS V15.00,2015-04-19 02:25:00,
2015-04-18 19:37:00,61.6,49.7,29.88,ESE,112,3.0,3.0,65,0.00,,---,0.00,11.00,VWS V15.00,2015-04-19 02:37:00,
2015-04-18 19:42:00,61.2,49.8,29.88,ESE,112,1.0,3.0,66,0.00,,---,0.00,7.00,VWS V15.00,2015-04-19 02:42:00,
2015-04-18 19:48:00,60.9,49.9,29.88,ESE,112,2.0,3.0,67,0.00,,---,0.00,0.00,VWS V15.00,2015-04-19 02:48:00,
2015-04-18 19:53:00,60.5,49.9,29.88,ESE,118,2.0,3.0,68,0.00,,---,0.00,0.00,VWS V15.00,2015-04-19 02:53:00,
2015-04-18 19:59:00,60.2,50.0,29.88,ESE,118,3.0,4.0,69,0.00,,---,0.00,0.00,VWS V15.00,2015-04-19 02:59:00,
2015-04-18 20:05:00,59.8,50.0,29.89,ESE,117,2.0,4.0,70,0.00,,---,0.00,0.00,VWS V15.00,2015-04-19 03:05:00,
2015-04-18 20:10:00,59.5,49.7,29.89,ESE,117,2.0,4.0,70,0.00,,---,0.00,0.00,VWS V15.00,2015-04-19 03:10:00,
2015-04-18 20:16:00,59.2,50.2,29.89,ESE,111,3.0,4.0,72,0.00,,---,0.00,0.00,VWS V15.00,2015-04-19 03:16:00,
2015-04-18 20:22:00,58.9,49.9,29.89,ESE,120,2.0,4.0,72,0.00,,---,0.00,0.00,VWS V15.00,2015-04-19 03:22:00,
2015-04-18 20:27:00,58.6,50.0,29.90,ESE,115,2.0,4.0,73,0.00,,---,0.00,0.00,VWS V15.00,2015-04-19 03:27:00,
2015-04-18 20:33:00,58.3,50.1,29.90,ESE,115,2.0,3.0,74,0.00,,---,0.00,0.00,VWS V15.00,2015-04-19 03:33:00,
2015-04-18 20:38:00,58.0,50.1,29.90,ESE,112,2.0,4.0,75,0.00,,---,0.00,0.00,VWS V15.00,2015-04-19 03:38:00,